{"data":{"norad_id":66953,"intl_designator":"2025-287A","name":"HULIANWANG DIGUI-114","alt_names":[],"object_type":"PAYLOAD","status":"ACTIVE","operator":null,"country":"PRC","launch_date":"2025-12-08","launch_site_code":"TAISC","launch_vehicle":null,"mission":null,"orbit_class":"UNKNOWN","rcs_meters":null,"size_class":null,"mass_kg":null,"dimensions":null,"purposes":[],"wikipedia_slug":null,"has_3d_model":false,"image_url":null,"decayed_at":null,"tle_current":{"epoch":"2026-09-20T22:29:16.539072Z","epoch_age_seconds":74317,"freshness":"FRESH","line1":"1 66953U 25287A   26263.93699698  .00000052  00000+0  85857-4 0  9994","line2":"2 66953  86.4889 249.9937 0001694  82.6460 277.4866 13.24403921 38014","mean_motion":13.24403921,"eccentricity":0.0001694,"inclination_deg":86.4889,"raan_deg":249.9937,"arg_perigee_deg":82.646,"mean_anomaly_deg":277.4866,"bstar":8.5857e-5,"rev_number":3801,"period_min":108.72815892245,"perigee_km":1166.6669701594,"apogee_km":1169.2235828347,"semimajor_km":7546.082276497,"source":"CELESTRAK","updated_at":"2026-09-21T09:00:16.320212Z"}}}